Simultaneous Nadir Overpasses (SNOs) Predictions

Prediction of SNOs between AURA and NPP Satellite Orbit:

Table of predicted SNOs for the next 14.0 days since TLE Epoch: 1/2/2021
Index Date (AURA) Time (AURA) Lat,Lon (AURA) SZA (AURA ) Date (NPP) Time (NPP) Lat,Lon (NPP) SZA (NPP ) Distance(km) Time Diff (sec)
1 01/03/2021 19:08:28 79.47, 149.45 115.01 01/03/2021 19:07:18 79.47, 149.57 115.04 2.52 70
2 01/03/2021 19:57:51 -79.63, -41.79 65.22 01/03/2021 19:57:59 -79.62, -41.86 65.22 1.34 8
3 01/06/2021 11:24:55 79.52, -94.29 114.69 01/06/2021 11:24:12 79.53, -94.23 114.71 1.42 43
4 01/06/2021 12:14:17 -79.72, 74.77 65.60 01/06/2021 12:14:52 -79.71, 74.66 65.61 2.36 35
5 01/09/2021 03:41:21 79.61, 22.20 114.27 01/09/2021 03:41:05 79.61, 22.25 114.27 0.94 16
6 01/09/2021 04:30:44 -79.77,-168.98 65.97 01/09/2021 04:31:46 -79.76,-169.12 66.00 2.73 62
7 01/11/2021 19:08:28 -79.40, -31.00 65.79 01/11/2021 19:07:22 -79.39, -31.09 65.73 1.91 66
8 01/11/2021 19:57:46 79.69, 138.67 113.80 01/11/2021 19:57:57 79.69, 138.72 113.78 1.12 11
9 01/14/2021 11:24:53 -79.52, 85.68 66.36 01/14/2021 11:24:14 -79.51, 85.63 66.32 1.13 39



Historial Predications of SNOs between AURA and NPP
